| time (UTC) | temp C | wind direction | speed KPH | gust KPH | rain 1hr cm | rain 24hr cm | rain mn cm | humidity % | barometer mb |
| 20260502151551 | 11 | 360 | 19.3 | 24.1 | 0.00 | 0.00 | 0.00 | 52 | 1020.4 |
| 20260502123002 | 2 | 360 | 4.8 | 8.0 | 0.00 | 0.00 | 0.00 | 83 | 1021.1 |
| 20260502121606 | 1 | 360 | 3.2 | 6.4 | 0.00 | 0.00 | 0.00 | 85 | 1021.1 |
| 20260502120119 | 0 | 297 | 3.2 | 8.0 | 0.00 | 0.00 | 0.00 | 85 | 1021.2 |
| 20260502114555 | 0 | 295 | 4.8 | 8.0 | 0.00 | 0.00 | 0.00 | 83 | 1021.1 |
| 20260502113050 | 0 | 297 | 4.8 | 8.0 | 0.00 | 0.00 | 0.00 | 82 | 1021.0 |
| 20260502111547 | 0 | 360 | 4.8 | 8.0 | 0.00 | 0.00 | 0.00 | 82 | 1021.0 |
| 20260502110049 | 0 | 300 | 4.8 | 8.0 | 0.00 | 0.00 | 0.00 | 82 | 1021.0 |
| 20260502104545 | 0 | 299 | 6.4 | 11.3 | 0.00 | 0.00 | 0.00 | 82 | 1021.0 |
| 20260502103044 | 0 | 296 | 6.4 | 11.3 | 0.00 | 0.00 | 0.00 | 85 | 1021.0 |
| 20260502101643 | 0 | 360 | 6.4 | 9.7 | 0.00 | 0.00 | 0.00 | 83 | 1021.0 |
| 20260502071522 | 1 | 360 | 3.2 | 6.4 | 0.00 | 0.00 | 0.00 | 81 | 1020.9 |
| 20260502070022 | 1 | 360 | 3.2 | 6.4 | 0.00 | 0.00 | 0.00 | 80 | 1020.9 |
| 20260502064518 | 1 | 360 | 1.6 | 4.8 | 0.00 | 0.00 | 0.00 | 78 | 1021.1 |
| 20260502063012 | 1 | 360 | 0.0 | 3.2 | 0.00 | 0.00 | 0.00 | 76 | 1021.1 |
| 20260502061509 | 2 | 360 | 3.2 | 6.4 | 0.00 | 0.00 | 0.00 | 75 | 1021.0 |
| 20260502060007 | 2 | 360 | 0.0 | 1.6 | 0.00 | 0.00 | 0.00 | 75 | 1021.0 |
| 20260502054510 | 2 | 360 | 1.6 | 3.2 | 0.00 | 0.00 | 0.00 | 75 | 1021.0 |
| 20260502053003 | 2 | 360 | 1.6 | 3.2 | 0.00 | 0.00 | 0.00 | 76 | 1021.0 |
| 20260502051602 | 2 | 360 | 0.0 | 3.2 | 0.00 | 0.00 | 0.00 | 74 | 1021.0 |
| 20260502050056 | 3 | 360 | 3.2 | 6.4 | 0.00 | 0.00 | 0.00 | 71 | 1021.0 |
| 20260502044555 | 3 | 360 | 0.0 | 0.0 | 0.00 | 0.00 | 0.00 | 67 | 1020.9 |
| 20260502043103 | 3 | 360 | 1.6 | 3.2 | 0.00 | 0.00 | 0.00 | 68 | 1020.8 |
| 20260502041557 | 3 | 360 | 0.0 | 0.0 | 0.00 | 0.00 | 0.00 | 67 | 1020.8 |
| 20260502040104 | 3 | 360 | 0.0 | 0.0 | 0.00 | 0.00 | 0.00 | 67 | 1020.7 |
| 20260502034602 | 3 | 360 | 0.0 | 3.2 | 0.00 | 0.00 | 0.00 | 66 | 1020.8 |
| 20260502033053 | 3 | 360 | 0.0 | 3.2 | 0.00 | 0.00 | 0.00 | 66 | 1020.9 |
| 20260502031552 | 4 | 360 | 1.6 | 3.2 | 0.00 | 0.00 | 0.00 | 65 | 1020.8 |
| 20260502030052 | 4 | 360 | 0.0 | 3.2 | 0.00 | 0.00 | 0.00 | 65 | 1020.8 |
| 20260502024608 | 5 | 360 | 1.6 | 3.2 | 0.00 | 0.00 | 0.00 | 64 | 1020.7 |
| 20260502023048 | 5 | 360 | 1.6 | 4.8 | 0.00 | 0.00 | 0.00 | 63 | 1020.6 |
| 20260502021550 | 5 | 360 | 1.6 | 4.8 | 0.00 | 0.00 | 0.00 | 62 | 1020.4 |
| 20260502020045 | 6 | 360 | 0.0 | 4.8 | 0.00 | 0.00 | 0.00 | 61 | 1020.1 |
| 20260502014543 | 6 | 360 | 3.2 | 6.4 | 0.00 | 0.00 | 0.00 | 58 | 1020.0 |
| 20260502013042 | 7 | 360 | 6.4 | 12.9 | 0.00 | 0.00 | 0.00 | 55 | 1019.8 |
| 20260502011540 | 8 | 360 | 9.7 | 17.7 | 0.00 | 0.00 | 0.00 | 52 | 1019.7 |
| 20260502010049 | 9 | 360 | 11.3 | 17.7 | 0.00 | 0.00 | 0.00 | 50 | 1019.5 |
| 20260502004554 | 9 | 360 | 8.0 | 14.5 | 0.00 | 0.00 | 0.00 | 50 | 1019.4 |
| 20260502003038 | 9 | 360 | 14.5 | 19.3 | 0.00 | 0.00 | 0.00 | 49 | 1019.3 |
| 20260502001538 | 10 | 360 | 17.7 | 22.5 | 0.00 | 0.00 | 0.00 | 49 | 1019.4 |
| 20260502000037 | 10 | 360 | 17.7 | 25.7 | 0.00 | 0.00 | 0.00 | 46 | 1019.3 |
| 20260501234536 | 11 | 360 | 16.1 | 24.1 | 0.00 | 0.00 | 0.00 | 46 | 1019.3 |
| 20260501233039 | 10 | 360 | 17.7 | 27.4 | 0.00 | 0.00 | 0.00 | 47 | 1019.3 |
| 20260501231535 | 10 | 360 | 16.1 | 25.7 | 0.00 | 0.00 | 0.00 | 49 | 1019.2 |
| 20260501230035 | 11 | 360 | 16.1 | 29.0 | 0.00 | 0.00 | 0.00 | 46 | 1019.1 |
| 20260501224535 | 11 | 360 | 19.3 | 25.7 | 0.00 | 0.00 | 0.00 | 47 | 1019.1 |
| 20260501223034 | 11 | 360 | 12.9 | 27.4 | 0.00 | 0.00 | 0.00 | 48 | 1019.1 |
| 20260501221532 | 10 | 360 | 16.1 | 25.7 | 0.00 | 0.00 | 0.00 | 50 | 1019.1 |
| 20260501220036 | 10 | 360 | 9.7 | 22.5 | 0.00 | 0.00 | 0.00 | 49 | 1019.1 |
| 20260501214530 | 11 | 360 | 14.5 | 22.5 | 0.00 | 0.00 | 0.00 | 48 | 1019.0 |
| 20260501213043 | 10 | 360 | 6.4 | 27.4 | 0.00 | 0.00 | 0.00 | 52 | 1019.2 |
| 20260501211529 | 10 | 360 | 9.7 | 20.9 | 0.00 | 0.00 | 0.00 | 51 | 1019.2 |
| 20260501210039 | 10 | 355 | 14.5 | 30.6 | 0.00 | 0.00 | 0.00 | 49 | 1019.3 |
| 20260501204530 | 10 | 360 | 14.5 | 25.7 | 0.00 | 0.00 | 0.00 | 49 | 1019.4 |
| 20260501203027 | 10 | 360 | 9.7 | 25.7 | 0.00 | 0.00 | 0.00 | 51 | 1019.5 |
| 20260501201531 | 9 | 10 | 12.9 | 22.5 | 0.00 | 0.00 | 0.00 | 52 | 1019.5 |
| 20260501200024 | 10 | 360 | 8.0 | 24.1 | 0.00 | 0.00 | 0.00 | 51 | 1019.5 |
| 20260501194532 | 10 | 360 | 14.5 | 30.6 | 0.00 | 0.00 | 0.00 | 51 | 1019.5 |
| 20260501193024 | 10 | 300 | 16.1 | 32.2 | 0.00 | 0.00 | 0.00 | 51 | 1019.4 |
| 20260501191520 | 9 | 360 | 11.3 | 20.9 | 0.00 | 0.00 | 0.00 | 51 | 1019.6 |
| 20260501190018 | 9 | 360 | 16.1 | 24.1 | 0.00 | 0.00 | 0.00 | 54 | 1019.5 |
| 20260501184516 | 9 | 360 | 12.9 | 24.1 | 0.00 | 0.00 | 0.00 | 58 | 1019.5 |
| 20260501183014 | 8 | 360 | 17.7 | 29.0 | 0.00 | 0.00 | 0.00 | 55 | 1019.4 |
| 20260501181512 | 8 | 360 | 16.1 | 25.7 | 0.00 | 0.00 | 0.00 | 56 | 1019.6 |
| 20260501180012 | 8 | 355 | 22.5 | 30.6 | 0.00 | 0.00 | 0.00 | 56 | 1019.5 |
| 20260501174509 | 8 | 360 | 12.9 | 25.7 | 0.00 | 0.00 | 0.00 | 59 | 1019.6 |
| 20260501173008 | 8 | 360 | 19.3 | 30.6 | 0.00 | 0.00 | 0.00 | 60 | 1019.6 |
| 20260501171506 | 8 | 360 | 22.5 | 29.0 | 0.00 | 0.00 | 0.00 | 59 | 1019.7 |
| 20260501170005 | 7 | 11 | 14.5 | 29.0 | 0.00 | 0.00 | 0.00 | 62 | 1019.6 |
| 20260501164503 | 7 | 360 | 16.1 | 29.0 | 0.00 | 0.00 | 0.00 | 62 | 1019.4 |
| 20260501163003 | 7 | 360 | 16.1 | 29.0 | 0.00 | 0.00 | 0.00 | 62 | 1019.3 |
| 20260501161601 | 8 | 360 | 20.9 | 30.6 | 0.00 | 0.00 | 0.00 | 62 | 1019.4 |